SIK655 LFSB-LFKJ

Flight info

Callsign SIK655
Flight time 1h 4m
Altitude 35000
Route ELBEG Y715 AMRUP N491 TRA DCT RIPUS DCT GERSA DCT SOSON DCT ODINA DCT EVANO DCT KEMMI DCT IXITO DCT UNITA DCT ERTEV/N0399F230 DCT TORTU
Aircraft B738/M-SDE2E3FGHIRWXY/LB1

Departure

Time 2026-04-26 18:01
Airport EuroAirport Basel–Mulhouse–Freiburg (LFSB)

Arrival

Time 2026-04-26 19:05
Airport Ajaccio Napoléon Bonaparte airport (LFKJ)
Time Latitude Longitude Altitude Speed Heading
2026-04-26 17:39 47.59871 7.52779 886 ft 0 kts 69°
2026-04-26 17:54 47.59871 7.52777 886 ft 3 kts 69°
2026-04-26 17:54 47.59863 7.52749 886 ft 3 kts 70°
2026-04-26 17:54 47.59862 7.52719 887 ft 3 kts 111°
2026-04-26 17:55 47.59874 7.52695 886 ft 3 kts 152°
2026-04-26 17:55 47.59879 7.52692 886 ft 0 kts 154°
2026-04-26 17:57 47.59878 7.52693 886 ft 1 kts 154°
2026-04-26 17:58 47.59673 7.52835 890 ft 14 kts 154°
2026-04-26 17:59 47.59523 7.52928 894 ft 3 kts 199°
2026-04-26 17:59 47.59488 7.52866 894 ft 11 kts 243°
2026-04-26 17:59 47.59450 7.52748 895 ft 12 kts 245°
2026-04-26 17:59 47.59425 7.52669 893 ft 6 kts 246°
2026-04-26 18:00 47.59433 7.52613 891 ft 4 kts 326°
2026-04-26 18:00 47.59548 7.52530 891 ft 49 kts 335°
2026-04-26 18:00 47.60075 7.52164 892 ft 116 kts 335°
2026-04-26 18:00 47.60980 7.51533 959 ft 163 kts 336°
2026-04-26 18:01 47.62020 7.50833 1707 ft 163 kts 338°
2026-04-26 18:01 47.63089 7.50115 2377 ft 178 kts 339°
2026-04-26 18:01 47.64286 7.49314 2940 ft 196 kts 338°
2026-04-26 18:01 47.65564 7.48423 3453 ft 210 kts 337°
2026-04-26 18:02 47.66908 7.47468 3942 ft 222 kts 337°
2026-04-26 18:02 47.67867 7.46799 4338 ft 227 kts 338°
2026-04-26 18:02 47.69838 7.45669 5116 ft 233 kts 359°
2026-04-26 18:02 47.71424 7.46261 5587 ft 239 kts 39°
2026-04-26 18:03 47.72369 7.48165 6442 ft 234 kts 71°
2026-04-26 18:03 47.72664 7.50564 7174 ft 237 kts 90°
2026-04-26 18:03 47.72477 7.52999 7930 ft 240 kts 100°
2026-04-26 18:03 47.72132 7.55557 8251 ft 263 kts 102°
2026-04-26 18:04 47.71763 7.58163 9165 ft 256 kts 101°
2026-04-26 18:04 47.71407 7.60789 9911 ft 262 kts 101°
2026-04-26 18:04 47.71064 7.63494 10568 ft 266 kts 100°
2026-04-26 18:05 47.70322 7.68929 11791 ft 280 kts 114°
2026-04-26 18:05 47.69222 7.71444 12017 ft 301 kts 129°
2026-04-26 18:05 47.67844 7.73908 12199 ft 325 kts 131°
2026-04-26 18:05 47.66328 7.76556 12393 ft 347 kts 131°
2026-04-26 18:06 47.64717 7.79395 12606 ft 368 kts 130°
2026-04-26 18:06 47.63077 7.82330 13119 ft 377 kts 130°
2026-04-26 18:06 47.61402 7.85365 13824 ft 381 kts 130°
2026-04-26 18:06 47.59723 7.88433 14501 ft 384 kts 129°
2026-04-26 18:07 47.58049 7.91507 15115 ft 388 kts 129°
2026-04-26 18:07 47.56331 7.94669 15730 ft 393 kts 129°
2026-04-26 18:07 47.54626 7.97808 16331 ft 397 kts 129°
2026-04-26 18:07 47.53474 7.99927 16734 ft 400 kts 129°
2026-04-26 18:08 47.51117 8.04259 17565 ft 406 kts 129°
2026-04-26 18:08 47.49354 8.07496 18145 ft 410 kts 129°
2026-04-26 18:08 47.47550 8.10802 18693 ft 415 kts 129°
2026-04-26 18:08 47.45723 8.14145 19224 ft 418 kts 129°
2026-04-26 18:09 47.43882 8.17513 19758 ft 421 kts 129°
2026-04-26 18:09 47.42054 8.20851 20259 ft 425 kts 129°
2026-04-26 18:09 47.40184 8.24261 20757 ft 428 kts 129°
2026-04-26 18:09 47.38292 8.27707 21254 ft 432 kts 129°
2026-04-26 18:10 47.36407 8.31138 21724 ft 435 kts 129°
2026-04-26 18:10 47.34466 8.34666 22205 ft 439 kts 129°
2026-04-26 18:10 47.32562 8.38122 22691 ft 442 kts 129°
2026-04-26 18:10 47.30609 8.41663 23180 ft 445 kts 129°
2026-04-26 18:11 47.28634 8.45203 23643 ft 448 kts 132°
2026-04-26 18:11 47.26275 8.48210 23999 ft 450 kts 149°
2026-04-26 18:11 47.23452 8.50186 24410 ft 448 kts 164°
2026-04-26 18:11 47.20436 8.51063 24804 ft 446 kts 176°
2026-04-26 18:12 47.17331 8.51450 25177 ft 448 kts 178°
2026-04-26 18:12 47.14205 8.51794 25533 ft 452 kts 178°
2026-04-26 18:12 47.11054 8.52174 25899 ft 455 kts 177°
2026-04-26 18:12 47.07887 8.52608 26282 ft 457 kts 176°
2026-04-26 18:13 47.04716 8.53068 26656 ft 459 kts 176°
2026-04-26 18:13 47.01567 8.53533 26998 ft 461 kts 176°
2026-04-26 18:13 46.98365 8.53999 27338 ft 463 kts 176°
2026-04-26 18:13 46.96189 8.54314 27580 ft 465 kts 176°
2026-04-26 18:14 46.91912 8.54930 28028 ft 467 kts 176°
2026-04-26 18:14 46.88661 8.55397 28327 ft 469 kts 176°
2026-04-26 18:14 46.85395 8.55865 28671 ft 471 kts 176°
2026-04-26 18:14 46.82172 8.56328 29012 ft 472 kts 176°
2026-04-26 18:15 46.78889 8.56800 29247 ft 475 kts 176°
2026-04-26 18:15 46.75584 8.57273 29517 ft 477 kts 176°
2026-04-26 18:15 46.72280 8.57746 29962 ft 475 kts 176°
2026-04-26 18:15 46.68989 8.58218 30398 ft 473 kts 176°
2026-04-26 18:16 46.65747 8.58681 30783 ft 472 kts 176°
2026-04-26 18:16 46.59219 8.59610 31498 ft 470 kts 176°
2026-04-26 18:16 46.55970 8.60073 31910 ft 467 kts 176°
2026-04-26 18:17 46.52768 8.60528 32287 ft 464 kts 176°
2026-04-26 18:17 46.49547 8.60985 32631 ft 463 kts 176°
2026-04-26 18:17 46.46331 8.61441 32960 ft 462 kts 176°
2026-04-26 18:17 46.43122 8.61896 33249 ft 462 kts 176°
2026-04-26 18:18 46.39931 8.62347 33613 ft 459 kts 176°
2026-04-26 18:18 46.36802 8.62789 33992 ft 457 kts 177°
2026-04-26 18:18 46.33636 8.63237 34321 ft 455 kts 177°
2026-04-26 18:18 46.30477 8.63682 34568 ft 454 kts 177°
2026-04-26 18:19 46.27322 8.64125 34736 ft 455 kts 177°
2026-04-26 18:19 46.24160 8.64569 34933 ft 455 kts 177°
2026-04-26 18:19 46.21053 8.65007 35041 ft 453 kts 176°
2026-04-26 18:19 46.17922 8.65446 35095 ft 453 kts 177°
2026-04-26 18:20 46.11612 8.66330 35070 ft 455 kts 177°
2026-04-26 18:20 46.07426 8.66900 35076 ft 453 kts 178°
2026-04-26 18:21 45.99069 8.67950 35081 ft 452 kts 178°
2026-04-26 18:21 45.93437 8.68651 35080 ft 451 kts 178°
2026-04-26 18:22 45.87200 8.69434 35085 ft 450 kts 178°
2026-04-26 18:22 45.80967 8.70218 35067 ft 450 kts 178°
2026-04-26 18:23 45.74705 8.71005 35076 ft 449 kts 178°
2026-04-26 18:23 45.68488 8.71785 35078 ft 449 kts 178°
2026-04-26 18:24 45.62292 8.72559 35078 ft 448 kts 178°
2026-04-26 18:24 45.56063 8.73336 35070 ft 448 kts 178°
2026-04-26 18:25 45.49871 8.74107 35076 ft 449 kts 179°
2026-04-26 18:25 45.43641 8.74881 35076 ft 449 kts 179°
2026-04-26 18:26 45.37440 8.75649 35074 ft 449 kts 179°
2026-04-26 18:26 45.31218 8.76386 35077 ft 448 kts 180°
2026-04-26 18:27 45.24980 8.76952 35077 ft 448 kts 180°
2026-04-26 18:27 45.18754 8.77489 35101 ft 448 kts 180°
2026-04-26 18:28 45.13575 8.77951 35104 ft 449 kts 180°
2026-04-26 18:28 45.07342 8.78517 35102 ft 449 kts 180°
2026-04-26 18:29 45.00089 8.79178 35104 ft 449 kts 180°
2026-04-26 18:29 44.94859 8.79653 35103 ft 449 kts 180°
2026-04-26 18:30 44.88641 8.80216 35102 ft 449 kts 179°
2026-04-26 18:30 44.82410 8.80779 35104 ft 449 kts 179°
2026-04-26 18:31 44.76179 8.81449 35108 ft 451 kts 174°
2026-04-26 18:31 44.69976 8.83000 35125 ft 452 kts 171°
2026-04-26 18:32 44.63792 8.84711 35131 ft 453 kts 171°
2026-04-26 18:32 44.57599 8.86366 35124 ft 453 kts 172°
2026-04-26 18:33 44.51390 8.87977 35134 ft 453 kts 172°
2026-04-26 18:33 44.45229 8.89558 35123 ft 453 kts 172°
2026-04-26 18:34 44.39029 8.91147 35126 ft 453 kts 172°
2026-04-26 18:34 44.32820 8.92736 35130 ft 452 kts 172°
2026-04-26 18:35 44.26656 8.94311 35133 ft 452 kts 172°
2026-04-26 18:35 44.20468 8.95889 35140 ft 452 kts 172°
2026-04-26 18:36 44.14269 8.97466 35147 ft 452 kts 172°
2026-04-26 18:36 44.08069 8.99040 35153 ft 452 kts 172°
2026-04-26 18:37 44.01910 9.00601 35152 ft 452 kts 172°
2026-04-26 18:37 43.95712 9.02063 35143 ft 450 kts 178°
2026-04-26 18:38 43.89496 9.01587 35160 ft 444 kts 192°
2026-04-26 18:38 43.83410 9.00144 35149 ft 445 kts 192°
2026-04-26 18:39 43.77316 8.98749 34860 ft 451 kts 191°
2026-04-26 18:39 43.74198 8.98062 34322 ft 452 kts 191°
2026-04-26 18:39 43.71091 8.97387 33622 ft 452 kts 191°
2026-04-26 18:40 43.68001 8.96716 33197 ft 447 kts 191°
2026-04-26 18:40 43.64934 8.96052 32692 ft 443 kts 191°
2026-04-26 18:40 43.61901 8.95682 32263 ft 441 kts 183°
2026-04-26 18:40 43.58847 8.95679 31825 ft 437 kts 182°
2026-04-26 18:41 43.55811 8.95727 31378 ft 433 kts 181°
2026-04-26 18:41 43.52801 8.95771 30949 ft 430 kts 181°
2026-04-26 18:41 43.49820 8.95797 30511 ft 427 kts 182°
2026-04-26 18:41 43.46856 8.95804 30056 ft 424 kts 182°
2026-04-26 18:42 43.43917 8.95804 29563 ft 420 kts 182°
2026-04-26 18:42 43.40999 8.95802 29122 ft 416 kts 182°
2026-04-26 18:42 43.38167 8.95591 28647 ft 410 kts 194°
2026-04-26 18:42 43.35452 8.94519 28263 ft 402 kts 200°
2026-04-26 18:43 43.32809 8.93311 27792 ft 399 kts 200°
2026-04-26 18:43 43.30185 8.92089 27354 ft 396 kts 200°
2026-04-26 18:43 43.27582 8.90883 26932 ft 393 kts 200°
2026-04-26 18:43 43.24992 8.89698 26510 ft 390 kts 200°
2026-04-26 18:44 43.22427 8.88538 26097 ft 387 kts 200°
2026-04-26 18:44 43.19866 8.87390 25681 ft 385 kts 200°
2026-04-26 18:44 43.17352 8.86270 25263 ft 383 kts 200°
2026-04-26 18:44 43.14821 8.85146 24863 ft 380 kts 199°
2026-04-26 18:45 43.12306 8.84033 24455 ft 378 kts 199°
2026-04-26 18:45 43.09805 8.82927 24052 ft 377 kts 199°
2026-04-26 18:45 43.07310 8.81825 23618 ft 375 kts 199°
2026-04-26 18:45 43.04850 8.80738 23144 ft 373 kts 199°
2026-04-26 18:46 43.02384 8.79651 22712 ft 371 kts 199°
2026-04-26 18:46 42.99936 8.78573 22291 ft 368 kts 199°
2026-04-26 18:46 42.97504 8.77502 21892 ft 365 kts 199°
2026-04-26 18:46 42.95092 8.76441 21484 ft 363 kts 199°
2026-04-26 18:47 42.92696 8.75387 21086 ft 360 kts 199°
2026-04-26 18:47 42.90312 8.74341 20690 ft 358 kts 199°
2026-04-26 18:47 42.87945 8.73302 20298 ft 356 kts 199°
2026-04-26 18:47 42.85585 8.72266 19901 ft 355 kts 199°
2026-04-26 18:48 42.83273 8.71253 19526 ft 353 kts 199°
2026-04-26 18:48 42.80935 8.70230 19136 ft 352 kts 199°
2026-04-26 18:48 42.78609 8.69212 18746 ft 350 kts 199°
2026-04-26 18:48 42.76285 8.68196 18346 ft 349 kts 199°
2026-04-26 18:49 42.73966 8.67183 17903 ft 348 kts 199°
2026-04-26 18:49 42.71657 8.66175 17490 ft 347 kts 199°
2026-04-26 18:49 42.69396 8.65189 17101 ft 345 kts 199°
2026-04-26 18:49 42.67116 8.64195 16713 ft 343 kts 198°
2026-04-26 18:50 42.64846 8.63207 16327 ft 341 kts 198°
2026-04-26 18:50 42.62591 8.62226 15952 ft 339 kts 198°
2026-04-26 18:50 42.60334 8.61244 15568 ft 338 kts 198°
2026-04-26 18:50 42.58095 8.60271 15192 ft 337 kts 198°
2026-04-26 18:51 42.55868 8.59305 14807 ft 336 kts 198°
2026-04-26 18:51 42.53673 8.58352 14449 ft 335 kts 198°
2026-04-26 18:51 42.51455 8.57391 14067 ft 334 kts 198°
2026-04-26 18:51 42.49243 8.56433 13665 ft 333 kts 198°
2026-04-26 18:52 42.47040 8.55479 13255 ft 332 kts 198°
2026-04-26 18:52 42.44837 8.54526 12869 ft 330 kts 198°
2026-04-26 18:52 42.42651 8.53581 12496 ft 328 kts 198°
2026-04-26 18:52 42.40497 8.52651 12122 ft 326 kts 198°
2026-04-26 18:53 42.38339 8.51719 11750 ft 325 kts 198°
2026-04-26 18:53 42.36190 8.50792 11379 ft 323 kts 198°
2026-04-26 18:53 42.34054 8.49872 11010 ft 321 kts 198°
2026-04-26 18:53 42.31925 8.48955 10678 ft 319 kts 198°
2026-04-26 18:54 42.29844 8.48059 10556 ft 309 kts 198°
2026-04-26 18:54 42.27820 8.47188 10412 ft 300 kts 198°
2026-04-26 18:54 42.25854 8.46343 10285 ft 292 kts 198°
2026-04-26 18:54 42.23943 8.45522 10162 ft 284 kts 198°
2026-04-26 18:55 42.22083 8.44797 9877 ft 281 kts 188°
2026-04-26 18:55 42.20148 8.44901 9672 ft 276 kts 170°
2026-04-26 18:55 42.18269 8.45395 9381 ft 275 kts 169°
2026-04-26 18:55 42.16396 8.45918 9080 ft 273 kts 168°
2026-04-26 18:56 42.14558 8.46431 8797 ft 272 kts 168°
2026-04-26 18:56 42.12696 8.46944 8520 ft 270 kts 169°
2026-04-26 18:56 42.10866 8.47442 8250 ft 269 kts 169°
2026-04-26 18:56 42.09027 8.47939 7971 ft 268 kts 169°
2026-04-26 18:57 42.07203 8.48429 7698 ft 267 kts 169°
2026-04-26 18:57 42.06000 8.48752 7505 ft 266 kts 169°
2026-04-26 18:57 42.03573 8.49400 7137 ft 265 kts 169°
2026-04-26 18:57 42.01786 8.49877 6873 ft 264 kts 169°
2026-04-26 18:58 41.99986 8.50356 6601 ft 264 kts 169°
2026-04-26 18:58 41.98199 8.50910 6295 ft 263 kts 158°
2026-04-26 18:58 41.96690 8.52279 6029 ft 261 kts 137°
2026-04-26 18:58 41.95397 8.53978 5785 ft 259 kts 136°
2026-04-26 18:59 41.94137 8.55646 5725 ft 249 kts 136°
2026-04-26 18:59 41.92936 8.57223 5649 ft 240 kts 136°
2026-04-26 18:59 41.91766 8.58749 5597 ft 228 kts 136°
2026-04-26 18:59 41.90655 8.60195 5432 ft 218 kts 136°
2026-04-26 19:00 41.89845 8.61880 5083 ft 218 kts 105°
2026-04-26 19:00 41.89598 8.63877 4760 ft 217 kts 97°
2026-04-26 19:00 41.89435 8.65890 4431 ft 216 kts 96°
2026-04-26 19:00 41.89282 8.67889 4181 ft 211 kts 96°
2026-04-26 19:01 41.89140 8.69783 4088 ft 198 kts 96°
2026-04-26 19:01 41.89302 8.71552 3818 ft 196 kts 63°
2026-04-26 19:01 41.90172 8.72885 3667 ft 184 kts 41°
2026-04-26 19:01 41.91134 8.73999 3408 ft 182 kts 37°
2026-04-26 19:02 41.92248 8.74803 3113 ft 181 kts 25°
2026-04-26 19:02 41.93390 8.75513 2823 ft 180 kts 25°
2026-04-26 19:02 41.94520 8.76211 2556 ft 176 kts 25°
2026-04-26 19:02 41.95250 8.76658 2364 ft 172 kts 25°
2026-04-26 19:03 41.96675 8.77530 1960 ft 168 kts 26°
2026-04-26 19:03 41.97687 8.78292 1810 ft 162 kts 44°
2026-04-26 19:03 41.98216 8.79541 1614 ft 153 kts 85°
2026-04-26 19:03 41.98038 8.80906 1461 ft 150 kts 114°
2026-04-26 19:04 41.97416 8.81997 1181 ft 149 kts 147°
2026-04-26 19:04 41.96462 8.82372 937 ft 149 kts 176°
2026-04-26 19:04 41.95437 8.82134 674 ft 152 kts 198°
2026-04-26 19:04 41.94499 8.81557 414 ft 150 kts 205°
2026-04-26 19:05 41.92644 8.80399 30 ft 141 kts 201°
2026-04-26 19:05 41.91892 8.79933 25 ft 89 kts 205°
2026-04-26 19:05 41.91505 8.79695 22 ft 46 kts 204°
2026-04-26 19:06 41.91263 8.79539 24 ft 21 kts 223°
2026-04-26 19:06 41.91304 8.79389 27 ft 21 kts 339°
2026-04-26 19:06 41.91438 8.79335 23 ft 20 kts
2026-04-26 19:06 41.91568 8.79398 26 ft 20 kts 26°
2026-04-26 19:07 41.91690 8.79475 28 ft 19 kts 25°
2026-04-26 19:07 41.91785 8.79535 25 ft 9 kts 25°
2026-04-26 19:07 41.91829 8.79517 25 ft 7 kts 322°
2026-04-26 19:07 41.91865 8.79499 24 ft 0 kts 343°